Погода Великие Луки

Погода Великие Луки : погода сейчас, прогноз погоды и архив. Всё, что Вы хотите узнать о погоде Великие Луки!

Поиск расширенной информации на нашем сайте:

Другие новости

Новости СМИ2

Главная страница сайта

Новости сайта

03.07.2017

Напоминаем, что на нашем специализированном сайте Метеоцентр.Азия вы можете получить высокодетализированные автоматические прогнозы погоды по пунктам России, СНГ и мира в авиационном формате (включающие направление и скорость ветра, видимость, явления погоды, количество и форму облачности, нижнюю и верхнюю границу облачности).


Погода Великие Луки - сегодня

Время (UTC), дата Ветер
(°,м/с) 
Видим.   Явления Облачность Т
(°С)
Тd
(°С)
f(%) Тe
(°С)
Pmin
(гПа)
dP
(гПа)
Po
(мм)
O2
(г/м3)
Тmin Tmax R s Состояние
почвы
03 15.08.17 тихо ()   4000 м  дымка  ясно 
+9.7 +9.7 100 +10  1027  1.2  761  294  +9.1         
06 15.08.17 010 (С) 10 км    1/1 1000 м 
[Cu hum]
+15 +13.2 89 +21  1027.9  1.1  761  288  +9.1        влажная 
09 15.08.17 020 (С) 10 км    6/4 1000 м верхняя 
[Cu med, cong|Ci fib]
+20.8 +11.9 57 +24  1027.7  761  283           
12 15.08.17 тихо ()   10 км    6/6 1000 м 
[Cu med, cong]
+23.3 +10.3 44 +25  1027  -0.6  761  281           
15 15.08.17 010 (С) 10 км    3/3 1000 м 
[Cu med, cong]
+22.9 +11 47 +25  1026.3  -0.6  761  281           
21 15.08.17 тихо ()   10 км    8/8 1000 м 
[Sc]
+12.9 +12.9 100 +18  1027.1  0.3  761  290           
00 16.08.17 тихо ()   4000 м  дымка  8/8 1000 м 
[Sc]
+11.9 +11.9 100 +15  1027.5  0.2  761  292           
03 16.08.17 тихо ()   10 км    10/10 1000 м 
[Sc]
+13.4 +12.7 96 +18  1027.1  -0.2  761  290  +11.3         
06 16.08.17 120 (ЮВ) 10 км    9/9 1000 м 
[Sc]
+17.1 +13.3 78 +25  1027  761  286  +11.3        влажная 
09 16.08.17 100 (В) 10 км    ясно 
+22.8 +12.6 53 +27  1025.7  -1  760  280           
12 16.08.17 110 (В) 10 км    4/4 1000 м 
[Cu med, cong]
+24.6 +12.5 47 +29  1024.9  -0.7  760  278           
15 16.08.17 тихо ()   10 км    6/6 1500 м 
[Sc diur, vesp]
+23.1 +14.5 58 +31  1024.2  -0.8  759  279           
18 16.08.17 100 (В) 10 км    ясно 
+17 +14.1 83 +25  1023.7  -0.7  758  285    +25.8       
21 16.08.17 тихо ()   10 км    ясно 
+14.1 +13.8 98 +20  1024  0.2  759  288           
00 17.08.17 тихо ()   4000 м  дымка  6/4 1000 м верхняя 
[Sc|Ci fib]
+14.1 +14 99 +21  1023.4  -0.7  758  288           
03 17.08.17 160 (Ю) 10 км    10/8 600 м кучево-дожд., верхняя 
[Cb cap|Ci sp]
+16.7 +14.8 89 +26  1022.9  -0.4  758  285  +13.4         
06 17.08.17 130 (ЮВ) 10 км  {ливн. осадки}  10/4 600 м кучево-дожд., верхняя 
[Cb cap|Ci fib]
+18.4 +16.9 91 +32  1022.9  0.1  758  282  +13.4    0.8    влажная 
09 17.08.17 150 (ЮВ) 10 км    10/0 средняя, верхняя 
[Ac cuf|Ci fib]
+22.7 +15.4 63 +32  1022.7  758  279           
12 17.08.17 170 (Ю) 10 км    10/1 1000 м средняя, верхняя 
[Cu hum|Ac cuf|Ci fib]
+25.9 +16.5 56 +37  1022  -0.5  757  275           
15 17.08.17 160 (Ю) 10 км    10/3 1000 м верхняя 
[Cu hum|Ci fib]
+25.5 +16.8 59 +37  1020.9  -1.1  757  275      0.8     
18 17.08.17 тихо ()   10 км    10/6 600 м кучево-дожд., верхняя 
[Cb cap|Cs]
+18.4 +16.6 89 +30  1021.3  -0.1  757  282    +25.9  0.8     
21 17.08.17 190 (Ю) 10 км    10/10 600 м кучево-дожд. 
[Cb cap]
+18.1 +16.9 93 +32  1021.7  0.5  757  282           
00 18.08.17 тихо ()   10 км  {гроза, ливн. осадки}  ясно 
+16.6 +16.6 100 +28  1020.6  -1.2  756  284           
03 18.08.17 130 (ЮВ) 4000 м  дымка  10/0 верхняя 
[Ci fib]
+15.7 +15.7 100 +27  1020.3  -0.3  756  285  +15.3       
06 18.08.17 180 (Ю) 10 км    6/6 1000 м 
[Cu Sc]
+21.8 +18.6 82 +37  1020.4  0.3  756  278  +15.3      влажная 
Время (UTC), дата Ветер
(°,м/с) 
Видим.   Явления Облачность Т
(°С)
Тd
(°С)
f(%) Тe
(°С)
Pmin
(гПа)
dP
(гПа)
Po
(мм)
O2
(г/м3)
Тmin Tmax R s Состояние
почвы

Для получения пояснительной информации подведите курсор к названию столбца.

ПОГОДА Великие Луки - архив

Всё, что Вы хотите узнать о погоде Великие Луки - удобно и подробно!

Выберите нужную дату (начиная с 1 января 2015* года) и нажмите кнопку "Найти".
Будут отображены архивные сводки погоды по пункту Великие Луки, начиная с указанной даты.


Отображать данные в формате CSV (для использования в таблицах Excel)


Внимание! Наш архив погоды предназначен исключительно для личного некоммерческого использования в познавательных целях. Если Вам необходимы официальные справки о состоянии погоды (для производственных, юридических, коммерческих и т.п. целей), обращайтесь в органы Росгидромета.

*Примечание: данная дата относится к архиву по метеостанциям СССР (Россия, СНГ, Балтия).
Архив по метеостанциям Зарубежной Европы и Азии (кроме Китая) хранится 10 дней, по другим регионам земного шара (Китай, Африка, Америка, Австралия, Океания) - 1 день.

Великие Луки - район местоположения метеостанции


Название, широта, долгота, высота метеостанции:
Великие Луки 56.3°ш. 30.6°д. 99 м над ур. моря [Российская Федерация]

Дополнительная информация

В oтличие oт бoльшинства пoгoдных сайтoв мы публикуем пoдрoбную метеoинфoрмацию в детальнoм прoфессиoнальнoм фoрмате.

Характеристики температуры и влажнoсти вoздуха измеряются на высoте 2 м в тени вдали oт зданий и деревьев.
Скoрoсть ветра измеряется на высoте 10 м (на урoвне рoста челoвека скoрoсть ветра ниже в 1.5-2 раза). Если метеoстанция нахoдится в гoрoде или в лесу, тo скoрoсть ветра занижена на 2-4 м/с пo сравнению с oткрытым местoм. Скoрoсть ветра над акватoриями крупных рек и oзёр, а также на вершинах хoлмoв на 2-5 м/с выше, чем в oбычных услoвиях.
Атмoсфернoе давление в разных тoчках местнoсти мoжет значительнo oтличаться oт давления на метеoстанции, в зависимoсти oт услoвий рельефа (при пoдъёме на 10 м давление пoнижается примернo на 1 мм рт.ст.).